sat.trackr.live / text

‹ back to catalog

TEVEL2-2

NORAD 63219 · 2025-052K

PAYLOAD ACTIVE UNKNOWN

§ Identity

Operator
Country
ISRA
Launch date
2025-03-15
Launch site
AFWTR
Launch vehicle
Mass (kg)
RCS (m²)

Purposes: comms

External: N2YO · Heavens-Above · Gunter

§ Orbital elements

Epoch: 2026-05-24T16:29:59.613792Z

Period
93.94 min
Inclination
97.3903°
Eccentricity
0.0002628
Mean motion
15.32970600 rev/d
Perigee alt
465.2 km
Apogee alt
468.8 km
Semi-major
6,845.1 km
B*
4.5480e-4
RAAN
40.6449°
Arg perigee
158.7421°
Mean anomaly
201.3931°
Rev number
6,649

§ Raw data

TEVEL2-21 63219U 25052K   26144.68749553  .00014418  00000+0  45480-3 0  99902 63219  97.3903  40.6449 0002628 158.7421 201.3931 15.32970600 66494

JSON: /api/v1/satellites/63219 · /tle

For live sub-satellite position, see the globe view (requires WebGL).

§ Visibility from observer

Set your observer location to see the next 7 days of passes ≥ 10°. The values pass through the URL so the page stays shareable.

No JS? Fill the form by hand. The geolocation button needs JavaScript.

§ Radio — SatNOGS DB

ModeDescriptionDownlinkUplink
BPSK Mode U - BPSK9k6 G3RUH 436.400 MHz
FM Mode V/U - FM Transponder - Beacon 436.400 MHz 145.970 MHz

2 transmitters · refreshed weekly from db.satnogs.org